Flag for India Weather past 2 weeks in Sultanpur, Uttar Pradesh, India

Now
82 °F

Haze.


Feels Like: 86 °F
Forecast: 88 / 111 °F
Wind: No wind

Location: Varanasi / Babatpur

Current Time: May 29, 2015 at 5:56:31 AM

Latest Report: May 29, 2015 at 5:00 AM


Visibility: 2 mi

Pressure: 29.53 "Hg

Humidity: 66%

Dew point: 70 °F

Location of SultanpurLocation

Historic Weather in Sultanpur — Graph

°F

Sultanpur temperature yesterday

Maximum temperature yesterday: 109 °F (at 1:00 PM)
Minimum temperature yesterday: 86 °F (at 4:00 AM)
Average temperature yesterday: 97 °F

Past Weeks' High & Low Weather Summary

 TemperatureHumidityPressure
High113 °F (May 23, 1:00 PM)79% (May 26, 5:00 AM)29.80 "Hg (May 26, 5:00 AM)
Low81 °F (May 16, 5:00 AM)9% (May 23, 2:00 PM)29.36 "Hg (May 18, 6:00 PM)
Average95 °F41%29.57 "Hg
* Reported Midnight between May 13 and May 14 — Midnight between May 28 and May 29, Sultanpur, Weather by CustomWeather, © 2015

Note: Actual official high and low records may vary slightly from our data, if they occured in-between our weather recording intervals... More about our weather records

Advertising

Sultanpur weather history for previous 24 hours

 ConditionsComfort  
Time TempWeatherWind HumidityBarometerVisibility
12:00 AM
Fri, May 29
90 °FHaze.No wind55%29.53 "Hg2 mi
11:00 PM
Thu, May 28
90 °FHaze.No wind52%29.56 "Hg2 mi
10:00 PM91 °FHaze.No wind44%29.56 "Hg2 mi
9:00 PM95 °FHaze.No wind32%29.53 "Hg2 mi
8:00 PM97 °FHaze.2 mph30%29.53 "Hg2 mi
7:00 PM99 °FHaze.2 mph29%29.50 "Hg2 mi
6:00 PM104 °FHaze.3 mph24%29.50 "Hg3 mi
5:00 PM108 °FHaze.8 mph18%29.50 "Hg3 mi
4:00 PM108 °FHaze.9 mph16%29.50 "Hg3 mi
3:00 PM109 °FHaze.14 mph16%29.50 "Hg3 mi
2:00 PM108 °FHaze.9 mph19%29.53 "Hg3 mi
1:00 PM109 °FHaze.8 mph27%29.56 "Hg3 mi
10:00 AM95 °FHaze.1 mph56%29.59 "Hg3 mi
9:00 AM91 °FHaze.N/A63%29.62 "Hg2 mi
7:00 AM88 °FHaze.6 mph55%29.59 "Hg2 mi
5:00 AM86 °FHaze.3 mph59%29.53 "Hg2 mi
Weather by CustomWeather, © 2015

See weather overviewHow to use our weather pages